This is the latest recevied weather packets stored in our database for station/object KF0WJA. If no packets are shown the sender has not sent any weather packets the latest 10 day(s).
| Time | Temp. | Humidity | Pressure | Rain* | Wind** | Luminosity | Snow |
|---|---|---|---|---|---|---|---|
| 1787970419 | 25.56° C | 53% | 1019.5 hPa | 0 mm | - | 0 W/m² | - |
| 1787970118 | 25.56° C | 54% | 1019.5 hPa | 0 mm | - | 0 W/m² | - |
| 1787969817 | 25.56° C | 54% | 1019.4 hPa | 0 mm | - | 0 W/m² | - |
| 1787969516 | 26.11° C | 53% | 1019.3 hPa | 0 mm | - | 0 W/m² | - |
| 1787969212 | 26.11° C | 53% | 1019.2 hPa | 0 mm | - | 0 W/m² | - |
| 1787968911 | 26.67° C | 52% | 1019.3 hPa | 0 mm | - | 0 W/m² | - |
| 1787968611 | 26.67° C | 52% | 1019.1 hPa | 0 mm | - | 0 W/m² | - |
| 1787968306 | 26.67° C | 52% | 1019.1 hPa | 0 mm | - | 0 W/m² | - |
| 1787968001 | 26.11° C | 52% | 1019.2 hPa | 0 mm | - | 0 W/m² | - |
| 1787967699 | 26.11° C | 52% | 1019.2 hPa | 0 mm | - | 0 W/m² | - |
| 1787967398 | 26.67° C | 52% | 1018.9 hPa | 0 mm | - | 0 W/m² | - |
| 1787967092 | 27.78° C | 49% | 1018.9 hPa | 0 mm | - | 0 W/m² | - |
| 1787966789 | 28.33° C | 46% | 1018.9 hPa | 0 mm | - | 0 W/m² | - |
| 1787966484 | 28.89° C | 47% | 1018.9 hPa | 0 mm | - | 0 W/m² | - |
| 1787966179 | 28.89° C | 46% | 1018.6 hPa | 0 mm | - | 0 W/m² | - |
| 1787965879 | 28.89° C | 46% | 1018.9 hPa | 0 mm | - | 0 W/m² | - |
| 1787965574 | 29.44° C | 46% | 1018.5 hPa | 0 mm | - | 0 W/m² | - |
| 1787965269 | 30° C | 45% | 1018.9 hPa | 0 mm | - | 3 W/m² | - |
| 1787964969 | 30.56° C | 44% | 1018.9 hPa | 0 mm | - | 5 W/m² | - |
| 1787964668 | 30.56° C | 43% | 1018.6 hPa | 0 mm | - | 9 W/m² | - |
| 1787964368 | 31.11° C | 43% | 1018.9 hPa | 0 mm | - | 13 W/m² | - |
| 1787964068 | 31.11° C | 42% | 1018.5 hPa | 0 mm | - | 19 W/m² | - |
| 1787963762 | 31.67° C | 41% | 1018.6 hPa | 0 mm | - | 23 W/m² | - |
| 1787963457 | 31.67° C | 40% | 1018.7 hPa | 0 mm | - | 29 W/m² | - |
| 1787963153 | 32.22° C | 39% | 1018.9 hPa | 0 mm | - | 41 W/m² | - |
* Rain latest hour (hover to see other rain measurements)
** Current wind speed in m/s (hover to see current wind gust speed)